Wind_Speed
21 18 16 14 13 11 10 9 7 5 3 2 3 3 4 5 6 7 7 7 7 8 8 8 8 8 8 8 8 8 8 9 9 9 9 9 8 8 7 7 7 6 6 6
23 19 17 16 15 13 12 11 9 7 5 4 4 4 5 5 5 5 6 7 7 7 7 7 7 7 8 8 8 8 8 8 8 8 8 8 8 7 8 7 7 7 7 7
24 21 20 19 18 17 14 13 11 9 7 7 7 6 5 4 5 5 6 5 6 7 7 6 6 7 7 7 7 7 7 8 8 8 8 8 8 8 7 7 8 8 8 8
26 24 23 21 20 19 17 14 13 11 12 10 9 7 5 4 4 5 6 6 6 6 6 6 6 6 6 6 7 7 7 7 7 8 8 8 7 7 8 8 8 8 8 8
27 25 24 23 21 19 18 16 14 13 13 12 11 9 6 5 5 5 6 5 5 5 5 5 5 6 6 6 7 7 6 7 7 7 8 8 7 7 8 8 8 8 8 9
27 27 26 24 23 21 20 19 17 17 17 16 12 12 9 7 5 5 6 6 6 5 5 5 5 6 6 6 6 7 7 7 7 7 8 8 8 8 8 8 9 9 9 9
28 28 26 25 24 23 22 21 21 21 20 16 13 14 11 8 6 6 6 6 6 6 6 5 5 5 6 7 7 7 7 7 7 8 8 8 8 9 9 9 10 10 9 9
28 27 26 25 24 23 24 23 23 22 19 17 15 14 11 9 8 9 8 8 8 8 6 5 5 5 6 7 8 8 7 7 8 8 8 9 9 9 9 9 10 10 9 9
27 25 25 24 24 24 24 24 23 22 20 17 15 12 11 11 11 10 9 9 10 10 9 7 6 6 6 7 7 8 8 8 8 9 9 9 10 10 10 10 11 11 10 10
27 25 24 24 25 25 24 23 23 22 20 19 16 14 13 12 11 11 11 10 10 10 9 8 8 8 8 8 8 8 9 9 9 10 10 10 11 11 11 11 11 12 11 10
28 26 25 25 25 25 24 24 24 23 21 19 17 15 13 13 11 11 11 10 10 10 9 9 9 9 9 9 9 9 10 10 10 11 11 11 12 12 12 12 12 12 12 11
29 28 26 26 25 24 24 25 24 24 23 21 19 17 15 14 13 12 13 13 12 11 10 10 10 10 10 9 9 10 10 11 11 12 12 12 13 14 14 14 13 13 13 13
31 30 28 27 27 26 25 26 26 25 24 22 21 19 17 16 14 14 16 14 13 12 11 11 11 10 10 10 10 10 11 12 12 13 13 14 15 15 16 15 15 15 14 14
32 31 31 29 27 26 26 26 26 26 25 23 22 21 20 18 17 16 16 15 15 14 13 13 12 13 12 12 11 11 12 12 13 13 14 15 15 16 16 17 16 15 14 14
33 32 31 31 29 28 26 27 27 26 25 24 23 22 21 20 19 18 17 16 15 14 14 14 14 14 14 13 12 13 14 14 14 14 15 15 15 16 16 17 16 15 15 14
35 34 33 32 31 29 27 27 26 26 26 24 24 24 23 22 21 20 19 18 16 15 15 16 16 16 15 14 14 15 15 15 16 16 16 16 16 16 16 17 15 14 14 14
36 34 34 32 32 31 30 28 27 27 27 27 26 25 24 23 23 22 20 20 19 18 16 17 17 16 16 16 16 17 17 17 17 17 17 17 17 17 17 16 15 15 14 14
35 35 35 34 33 34 32 29 27 28 28 27 26 26 24 24 23 22 21 20 18 17 16 17 17 17 17 16 17 18 18 18 18 17 18 18 18 18 18 17 16 16 16 15
34 35 35 35 34 34 32 30 29 28 30 29 29 28 26 24 24 22 21 21 20 18 18 18 18 18 17 17 18 18 19 19 17 17 18 18 19 19 18 18 17 16 16 16
34 35 36 36 36 35 33 32 32 31 31 29 28 27 25 24 24 23 23 22 22 21 20 20 20 19 19 18 19 19 19 19 19 18 18 19 18 18 18 18 17 17 18 17
33 35 36 36 36 35 34 33 32 33 31 29 29 28 26 25 25 23 23 23 23 23 23 23 23 22 21 20 19 20 20 20 19 19 18 19 18 19 19 18 18 19 18 18
33 34 36 36 36 36 34 34 33 31 30 30 29 27 27 26 26 25 24 23 23 24 24 25 25 24 23 21 20 21 21 20 20 19 19 19 20 19 18 18 19 19 19 19
34 34 35 35 35 35 35 34 33 32 32 30 30 29 27 26 25 26 25 24 24 25 25 25 25 24 23 21 22 21 21 20 20 20 20 21 20 20 20 19 19 19 19 20
34 34 35 35 35 35 35 35 34 33 34 32 31 29 27 27 26 27 27 26 25 25 26 26 25 24 23 23 23 22 22 21 21 21 21 21 21 21 22 22 21 21 22 21
34 34 35 35 35 35 33 34 33 33 33 31 31 30 30 29 29 29 28 28 28 27 27 26 26 25 25 24 23 22 23 22 22 22 21 22 22 22 23 23 23 23 23 23
35 35 35 35 35 34 34 34 33 33 32 30 30 30 30 30 30 30 29 29 28 27 26 26 26 26 25 25 24 24 24 24 23 22 23 23 23 23 23 23 24 24 23 23
Wind_Direction
209 210 209 206 202 199 194 200 209 216 231 303 343 357 359 7 18 19 11 19 28 31 30 30 32 33 32 33 33 32 35 34 26 23 21 22 23 23 18 17 18 13 9 3
212 210 208 204 203 201 195 200 208 212 225 257 291 311 322 332 357 4 357 6 22 32 32 29 27 28 28 28 30 29 27 26 24 22 22 20 22 21 18 16 12 10 6 2
214 211 209 208 206 207 204 203 210 218 223 246 261 280 300 313 339 354 357 355 5 15 23 27 23 20 22 22 20 20 17 16 16 16 15 16 19 18 13 9 8 7 5 1
214 213 213 211 211 213 209 209 213 224 229 239 251 272 288 299 316 336 343 354 355 359 6 16 19 18 16 12 10 10 7 5 7 8 7 11 15 13 7 8 8 4 1 357
215 214 215 216 215 214 212 212 216 226 232 239 247 257 270 282 289 306 318 328 344 341 345 354 4 14 11 6 4 4 2 2 3 3 4 7 7 3 357 1 3 0 357 356
215 215 215 217 216 216 213 214 218 226 234 241 244 250 261 268 283 299 306 319 327 327 325 333 351 3 8 5 1 360 357 359 359 357 358 359 1 358 356 357 357 353 351 351
216 217 217 218 217 217 212 212 216 224 231 238 240 243 249 263 270 278 287 298 317 311 315 318 331 345 353 357 358 356 357 357 351 351 351 349 350 349 348 349 347 344 341 341
216 217 217 218 219 219 217 218 221 228 233 238 241 243 244 257 263 262 270 280 292 294 297 308 314 319 330 338 346 350 347 348 348 344 342 341 340 337 338 339 342 340 337 336
215 217 217 218 217 216 216 219 223 229 233 237 240 241 245 250 250 251 259 269 278 286 302 303 300 304 312 322 330 335 334 332 333 335 336 335 331 330 331 333 337 337 334 330
215 215 213 214 216 216 216 219 220 225 228 234 237 241 246 245 241 243 250 259 272 283 292 294 287 289 298 308 316 320 321 322 321 322 327 331 331 330 326 327 331 329 326 323
212 214 213 215 215 215 216 217 222 227 231 234 238 237 239 239 242 246 250 256 266 274 283 288 287 285 291 299 308 315 318 315 314 318 322 324 325 325 325 323 321 320 320 320
212 213 214 216 215 216 219 219 224 229 233 234 237 236 238 243 249 254 256 259 265 266 277 289 287 284 292 297 300 305 313 315 315 316 317 318 319 320 320 317 314 312 312 311
211 214 212 214 215 217 219 219 224 229 232 235 238 239 235 243 248 256 256 256 264 266 273 284 286 286 290 291 295 300 306 310 312 314 315 315 315 316 317 315 310 309 309 306
213 216 215 214 216 219 220 221 224 228 230 234 237 240 238 244 249 255 256 256 264 267 275 280 283 288 287 288 289 294 303 306 308 310 312 314 314 313 317 317 312 310 308 304
214 216 216 215 215 218 222 223 224 227 230 233 237 241 241 246 251 254 256 258 263 267 270 275 281 284 285 288 291 294 298 301 305 308 311 314 316 314 313 314 313 312 311 308
215 216 217 216 215 218 222 224 224 228 231 233 235 240 243 248 253 256 258 263 268 270 272 273 278 281 282 285 287 291 293 297 301 304 307 311 313 314 313 311 311 315 314 310
219 218 217 217 217 219 221 221 223 228 232 234 236 240 245 250 255 260 264 267 267 271 271 273 276 277 278 281 283 286 289 293 295 297 301 305 308 309 312 310 310 311 311 311
220 219 219 218 217 218 221 222 226 230 232 234 235 238 244 249 254 261 264 265 266 269 271 273 276 279 278 280 282 284 287 293 295 294 297 300 303 305 307 309 307 307 307 307
220 221 221 220 220 220 221 223 226 230 232 235 238 241 244 248 252 258 261 262 265 270 274 276 280 282 281 283 284 286 291 295 296 293 295 298 302 304 305 305 303 303 304 304
220 222 224 223 223 223 224 225 228 231 234 235 238 241 244 247 252 255 259 262 266 270 274 279 284 284 285 288 287 289 290 293 294 293 294 297 298 302 302 303 302 301 302 302
221 222 223 224 225 226 226 226 229 232 236 239 241 243 243 246 251 256 258 261 265 271 276 279 280 282 284 286 285 288 289 291 293 292 294 294 292 301 303 300 302 304 300 298
220 222 223 225 226 227 227 229 232 235 237 240 239 239 242 246 250 254 258 261 266 271 276 279 280 282 284 285 285 286 287 289 291 291 292 292 291 296 301 300 299 300 298 296
223 224 224 226 228 229 230 231 234 235 237 238 237 238 238 244 250 254 258 261 267 270 274 278 280 282 284 285 285 284 286 287 288 289 290 292 293 292 299 300 300 299 298 298
225 226 226 228 229 231 232 233 235 237 239 241 240 240 241 245 249 253 256 261 265 270 275 278 279 281 282 284 283 282 282 283 285 285 286 290 293 293 296 298 301 302 301 300
226 228 227 229 231 232 233 235 236 239 240 240 240 242 244 247 251 255 260 263 264 268 273 275 276 277 279 280 281 281 282 281 282 284 286 289 291 293 297 299 299 300 300 299
227 228 228 229 231 234 235 235 236 239 240 243 244 243 246 248 251 254 258 261 264 268 271 272 273 275 276 276 277 278 278 278 281 285 288 288 288 292 296 297 298 298 298 297
Height
5915 5918 5920 5923 5925 5927 5927 5927 5928 5929 5930 5931 5932 5932 5932 5932 5931 5931 5931 5929 5928 5927 5926 5925 5924 5923 5922 5922 5921 5920 5918 5917 5916 5914 5913 5911 5910 5909 5907 5906 5905 5903 5901 5900
5912 5915 5919 5920 5922 5924 5925 5926 5927 5928 5929 5931 5932 5932 5932 5931 5931 5931 5930 5928 5928 5928 5927 5926 5925 5924 5923 5922 5921 5920 5919 5917 5916 5914 5913 5911 5910 5909 5907 5906 5905 5903 5902 5900
5909 5913 5915 5917 5919 5921 5923 5925 5926 5927 5928 5929 5930 5931 5931 5930 5930 5930 5929 5929 5929 5928 5927 5926 5925 5924 5923 5922 5921 5920 5919 5917 5916 5915 5913 5911 5910 5909 5907 5906 5904 5903 5901 5899
5904 5908 5910 5913 5916 5918 5920 5923 5924 5925 5926 5926 5928 5929 5929 5929 5929 5929 5929 5929 5928 5928 5927 5926 5925 5924 5923 5922 5921 5920 5919 5918 5916 5915 5913 5911 5910 5909 5907 5905 5904 5903 5901 5899
5900 5904 5906 5909 5913 5915 5918 5920 5922 5923 5923 5924 5925 5926 5928 5927 5927 5928 5927 5928 5928 5927 5927 5926 5925 5924 5923 5922 5921 5920 5919 5917 5916 5915 5913 5912 5910 5909 5907 5906 5904 5902 5900 5898
5896 5899 5902 5906 5909 5912 5915 5917 5919 5920 5921 5922 5923 5924 5925 5925 5925 5926 5926 5926 5926 5926 5926 5926 5925 5924 5923 5922 5921 5920 5919 5917 5916 5915 5913 5912 5910 5908 5907 5905 5903 5901 5899 5898
5891 5894 5898 5901 5905 5908 5911 5914 5916 5917 5917 5919 5921 5921 5923 5923 5923 5923 5924 5924 5924 5925 5925 5925 5924 5923 5922 5921 5920 5919 5918 5917 5916 5914 5913 5911 5910 5908 5906 5904 5902 5900 5898 5896
5885 5890 5894 5897 5901 5904 5906 5910 5912 5914 5915 5917 5918 5917 5920 5920 5920 5920 5921 5922 5923 5923 5923 5923 5923 5922 5922 5921 5920 5919 5917 5916 5915 5914 5912 5910 5909 5907 5905 5903 5901 5899 5896 5895
5881 5886 5890 5893 5897 5900 5902 5905 5908 5910 5911 5913 5914 5915 5916 5917 5917 5918 5919 5919 5920 5921 5921 5921 5921 5921 5920 5919 5919 5918 5917 5916 5914 5913 5911 5909 5908 5906 5904 5902 5899 5897 5895 5893
5876 5881 5885 5889 5892 5895 5899 5901 5904 5906 5907 5909 5911 5912 5914 5913 5914 5916 5916 5917 5918 5919 5919 5919 5919 5919 5919 5918 5917 5916 5915 5914 5913 5911 5909 5908 5906 5904 5902 5900 5898 5895 5893 5891
5871 5876 5881 5884 5887 5891 5895 5897 5899 5902 5904 5906 5908 5911 5911 5911 5912 5913 5914 5915 5916 5916 5917 5917 5917 5917 5916 5916 5915 5914 5913 5912 5911 5909 5907 5906 5904 5902 5900 5898 5895 5893 5891 5889
5866 5871 5875 5879 5884 5887 5890 5893 5896 5898 5900 5903 5905 5910 5908 5909 5909 5910 5910 5912 5913 5914 5914 5914 5915 5915 5914 5913 5913 5912 5911 5909 5908 5907 5905 5904 5902 5900 5897 5895 5893 5891 5888 5886
5861 5866 5870 5874 5880 5883 5885 5888 5891 5894 5896 5898 5900 5905 5904 5905 5906 5907 5907 5908 5909 5910 5911 5912 5912 5912 5911 5911 5910 5909 5908 5907 5906 5904 5903 5901 5899 5897 5894 5892 5890 5887 5885 5883
5857 5861 5866 5870 5874 5877 5880 5883 5886 5889 5891 5894 5896 5899 5900 5901 5903 5903 5903 5904 5905 5906 5908 5908 5908 5908 5908 5908 5907 5906 5905 5904 5903 5901 5900 5898 5895 5893 5891 5888 5886 5884 5882 5880
5852 5856 5860 5866 5869 5872 5875 5878 5881 5884 5886 5889 5892 5894 5896 5897 5899 5900 5901 5901 5902 5903 5904 5904 5904 5904 5904 5904 5903 5902 5902 5900 5899 5898 5896 5894 5892 5889 5887 5885 5882 5880 5878 5877
5846 5851 5856 5861 5865 5868 5871 5874 5877 5880 5882 5884 5887 5889 5891 5892 5894 5895 5896 5897 5897 5898 5899 5899 5900 5900 5900 5900 5899 5898 5897 5896 5895 5894 5892 5890 5888 5886 5883 5881 5879 5877 5875 5873
5840 5846 5850 5855 5859 5863 5866 5869 5872 5875 5877 5879 5881 5884 5886 5888 5889 5890 5892 5893 5893 5894 5894 5895 5895 5896 5895 5895 5895 5894 5893 5892 5890 5889 5888 5887 5885 5882 5880 5878 5876 5875 5872 5870
5835 5840 5844 5849 5854 5858 5863 5865 5867 5869 5871 5874 5876 5879 5881 5883 5885 5886 5887 5888 5889 5889 5890 5890 5891 5890 5890 5890 5889 5889 5888 5887 5885 5884 5883 5882 5880 5878 5876 5874 5873 5871 5869 5867
5829 5834 5838 5843 5847 5852 5857 5859 5862 5864 5866 5868 5871 5874 5876 5878 5880 5881 5883 5883 5884 5885 5886 5886 5886 5885 5884 5884 5884 5884 5883 5882 5880 5879 5878 5877 5876 5874 5872 5870 5869 5867 5865 5863
5823 5828 5833 5837 5841 5845 5851 5854 5856 5859 5860 5863 5866 5869 5872 5874 5875 5877 5878 5879 5880 5880 5881 5881 5881 5880 5879 5879 5878 5878 5878 5877 5876 5875 5874 5873 5871 5869 5867 5866 5864 5863 5861 5859
5817 5821 5825 5830 5834 5839 5844 5847 5851 5854 5856 5858 5860 5864 5866 5868 5870 5872 5873 5874 5874 5874 5875 5876 5876 5875 5874 5872 5872 5872 5872 5872 5871 5870 5869 5868 5867 5864 5862 5861 5860 5858 5856 5854
5810 5814 5819 5823 5828 5834 5838 5841 5844 5847 5850 5851 5854 5857 5860 5862 5865 5866 5867 5868 5869 5869 5869 5869 5869 5869 5867 5866 5867 5866 5866 5866 5865 5864 5863 5862 5861 5859 5857 5856 5854 5852 5850 5849
5804 5808 5812 5817 5823 5826 5830 5833 5837 5840 5843 5845 5848 5850 5853 5856 5858 5860 5861 5862 5863 5863 5863 5863 5863 5863 5862 5862 5862 5861 5861 5860 5859 5858 5857 5856 5855 5854 5852 5850 5849 5846 5845 5843
5797 5801 5806 5810 5814 5818 5822 5826 5830 5834 5837 5839 5841 5844 5847 5850 5852 5854 5855 5857 5857 5857 5857 5856 5856 5856 5856 5856 5856 5855 5855 5854 5853 5852 5851 5850 5849 5848 5846 5845 5843 5841 5839 5836
5791 5795 5799 5803 5807 5811 5815 5818 5822 5826 5829 5832 5834 5838 5841 5843 5845 5847 5848 5849 5850 5851 5850 5850 5849 5849 5849 5849 5849 5849 5848 5848 5847 5846 5845 5844 5843 5842 5841 5839 5837 5835 5833 5831
5784 5789 5793 5797 5801 5805 5809 5811 5815 5819 5822 5825 5828 5831 5833 5834 5836 5838 5840 5841 5842 5843 5843 5843 5843 5843 5843 5842 5842 5842 5842 5842 5841 5840 5839 5838 5837 5836 5834 5833 5831 5829 5827 5824